Terug naar catalogus

STARLINK-36851

ActiefCommunicatieVLEO
NORAD 67943·PAYLOAD·🇺🇸 United States

Gelanceerd Feb 24, 2026 vanaf Vandenberg Space Force Base

Loading…

Volgende Passages (komende 24 uur)

TLE

VersSource: CelesTrak SupGP

Epoch: Sep 14, 2026, 21:11 UTC

1 67943C 26037M   26257.88312500  .00015873  00000+0  57474-3 0  2576
2 67943  42.9998 202.1900 0001319 264.0677 186.2316 15.27580043    15

Volg STARLINK-36851 in realtime met AllMySat

Download on the App Store